Torna al catalogo

USA 409

AttivoMilitareVLEO
NORAD 61030·PAYLOAD·🇺🇸 United States

Lanciato Sep 6, 2024 da Vandenberg Space Force Base

Loading…

Prossimi Passaggi (prossime 24 ore)

TLE

ObsoletoSource: Mike McCants

Epoca: Sep 9, 2026, 20:49 UTC

1 61030U 24160K   26252.86791069 0.00000000  00000-0  00000-0 0    09
2 61030  70.0200 159.2307 0002000 182.1649 177.8351 14.96713243    03

Traccia USA 409 in tempo reale con AllMySat

Download on the App Store